SIA401 VIDP-WSSS

Flight info

Callsign SIA401
Flight time N/A
Altitude 37000
Route ALI6C ALI G452 LKN R460 CEA L507 BGO M626 KEVAM/N0485F390 M626 IKOGA Y24 PASVA Y514 NUFFA DCT PIBAP DCT PASPU DCT NYLON DCT POSUB DCT SANAT
Aircraft B77W/H-SDE1E2E3FGHIJ4J5M1P2RWXYZ/LB1D1

Departure

Time 2026-05-06 15:50
Airport Indira Gandhi International Airport (VIDP)

Arrival

Time N/A
Airport Singapore Changi Airport (WSSS)
Time Latitude Longitude Altitude Speed Heading
2026-05-06 15:19 28.55642 77.08185 791 ft 0 kts 150°
2026-05-06 15:38 28.55655 77.08177 791 ft 2 kts 150°
2026-05-06 15:38 28.55669 77.08168 791 ft 2 kts 150°
2026-05-06 15:39 28.55683 77.08159 791 ft 2 kts 150°
2026-05-06 15:39 28.55697 77.08150 791 ft 2 kts 150°
2026-05-06 15:39 28.55711 77.08140 791 ft 2 kts 149°
2026-05-06 15:39 28.55723 77.08129 791 ft 2 kts 121°
2026-05-06 15:40 28.55728 77.08111 791 ft 2 kts 84°
2026-05-06 15:40 28.55726 77.08101 791 ft 0 kts 69°
2026-05-06 15:42 28.55729 77.08109 791 ft 4 kts 69°
2026-05-06 15:42 28.55742 77.08135 791 ft 4 kts 49°
2026-05-06 15:43 28.55761 77.08153 791 ft 4 kts 34°
2026-05-06 15:43 28.55782 77.08165 791 ft 3 kts 19°
2026-05-06 15:43 28.55821 77.08167 791 ft 9 kts 352°
2026-05-06 15:43 28.55894 77.08135 791 ft 12 kts 332°
2026-05-06 15:44 28.55965 77.08090 791 ft 12 kts 328°
2026-05-06 15:44 28.56017 77.08025 791 ft 11 kts 295°
2026-05-06 15:44 28.56041 77.07944 791 ft 11 kts 303°
2026-05-06 15:44 28.56105 77.07916 791 ft 10 kts
2026-05-06 15:45 28.56172 77.07931 791 ft 10 kts 14°
2026-05-06 15:45 28.56236 77.07950 791 ft 9 kts 14°
2026-05-06 15:45 28.56298 77.07968 791 ft 9 kts 14°
2026-05-06 15:45 28.56357 77.07985 791 ft 9 kts 14°
2026-05-06 15:46 28.56414 77.08002 791 ft 8 kts 14°
2026-05-06 15:46 28.56461 77.08033 791 ft 8 kts 43°
2026-05-06 15:46 28.56492 77.08082 791 ft 7 kts 62°
2026-05-06 15:46 28.56515 77.08134 791 ft 7 kts 63°
2026-05-06 15:47 28.56537 77.08182 791 ft 7 kts 62°
2026-05-06 15:47 28.56559 77.08230 791 ft 7 kts 62°
2026-05-06 15:47 28.56581 77.08276 791 ft 6 kts 62°
2026-05-06 15:47 28.56602 77.08320 791 ft 6 kts 62°
2026-05-06 15:48 28.56622 77.08363 791 ft 6 kts 62°
2026-05-06 15:48 28.56642 77.08405 791 ft 6 kts 62°
2026-05-06 15:48 28.56661 77.08445 791 ft 6 kts 60°
2026-05-06 15:48 28.56680 77.08484 791 ft 6 kts 60°
2026-05-06 15:49 28.56698 77.08522 791 ft 5 kts 72°
2026-05-06 15:49 28.56701 77.08563 791 ft 5 kts 95°
2026-05-06 15:49 28.56675 77.08690 791 ft 31 kts 105°
2026-05-06 15:49 28.56573 77.09151 791 ft 95 kts 106°
2026-05-06 15:50 28.56343 77.10141 793 ft 162 kts 103°
2026-05-06 15:50 28.56049 77.11477 1231 ft 183 kts 104°
2026-05-06 15:50 28.55725 77.12896 1861 ft 184 kts 104°
2026-05-06 15:50 28.55399 77.14309 2527 ft 187 kts 104°
2026-05-06 15:51 28.55060 77.15783 2894 ft 201 kts 104°
2026-05-06 15:51 28.54686 77.17400 3110 ft 223 kts 104°
2026-05-06 15:51 28.54271 77.19188 3482 ft 245 kts 104°
2026-05-06 15:51 28.53818 77.21135 4011 ft 263 kts 105°
2026-05-06 15:52 28.53344 77.23169 4849 ft 268 kts 105°
2026-05-06 15:52 28.52864 77.25225 5768 ft 270 kts 105°
2026-05-06 15:52 28.52378 77.27309 6621 ft 275 kts 105°
2026-05-06 15:52 28.51885 77.29424 7450 ft 279 kts 105°
2026-05-06 15:53 28.51383 77.31572 8266 ft 283 kts 105°
2026-05-06 15:53 28.50738 77.33701 9043 ft 287 kts 113°
2026-05-06 15:53 28.49759 77.35694 9728 ft 292 kts 126°
2026-05-06 15:53 28.48389 77.37415 10103 ft 296 kts 136°
2026-05-06 15:54 28.46828 77.38942 10142 ft 298 kts 140°
2026-05-06 15:54 28.45202 77.40423 10105 ft 301 kts 141°
2026-05-06 15:54 28.43588 77.41899 10102 ft 302 kts 140°
2026-05-06 15:54 28.41983 77.43440 10103 ft 302 kts 139°
2026-05-06 15:55 28.40374 77.44979 10122 ft 307 kts 143°
2026-05-06 15:55 28.38491 77.46275 10455 ft 326 kts 152°
2026-05-06 15:55 28.36379 77.47413 10863 ft 345 kts 158°
2026-05-06 15:55 28.34049 77.48311 11323 ft 363 kts 165°
2026-05-06 15:56 28.31552 77.49043 11909 ft 378 kts 166°
2026-05-06 15:56 28.28980 77.49853 12597 ft 391 kts 163°
2026-05-06 15:56 28.26377 77.50876 13318 ft 401 kts 160°
2026-05-06 15:56 28.23751 77.52041 14118 ft 409 kts 158°
2026-05-06 15:57 28.21110 77.53306 14923 ft 416 kts 157°
2026-05-06 15:57 28.18437 77.54623 15748 ft 422 kts 157°
2026-05-06 15:57 28.15720 77.55939 16538 ft 427 kts 158°
2026-05-06 15:57 28.12963 77.57251 17310 ft 433 kts 158°
2026-05-06 15:58 28.10155 77.58591 17834 ft 445 kts 159°
2026-05-06 15:58 28.07269 77.59951 18380 ft 453 kts 159°
2026-05-06 15:58 28.04333 77.61324 19050 ft 459 kts 160°
2026-05-06 15:58 28.02374 77.62239 19496 ft 462 kts 160°
2026-05-06 15:59 27.98375 77.64104 20397 ft 467 kts 160°
2026-05-06 15:59 27.95356 77.65512 21061 ft 471 kts 160°
2026-05-06 15:59 27.92313 77.66930 21708 ft 475 kts 160°
2026-05-06 15:59 27.89307 77.68514 22220 ft 480 kts 151°
2026-05-06 16:00 27.86672 77.70867 22719 ft 488 kts 135°
2026-05-06 16:00 27.84660 77.73949 23306 ft 490 kts 119°
2026-05-06 16:00 27.83402 77.77523 23856 ft 491 kts 104°
2026-05-06 16:00 27.82813 77.81323 24372 ft 492 kts 94°
2026-05-06 16:01 27.82652 77.85184 24929 ft 493 kts 88°
2026-05-06 16:01 27.82699 77.87750 25261 ft 495 kts 86°
2026-05-06 16:01 27.82795 77.90389 25609 ft 497 kts 85°
2026-05-06 16:01 27.82835 77.91477 25738 ft 498 kts 85°
2026-05-06 16:02 27.82932 77.95406 26228 ft 502 kts 86°
2026-05-06 16:02 27.82961 77.99359 26703 ft 505 kts 88°
2026-05-06 16:02 27.82944 78.03338 27162 ft 508 kts 88°
2026-05-06 16:02 27.82932 78.07353 27556 ft 513 kts 88°
2026-05-06 16:03 27.82907 78.11391 27977 ft 516 kts 90°
2026-05-06 16:03 27.82586 78.15440 28348 ft 521 kts 97°
2026-05-06 16:03 27.81852 78.19463 28740 ft 525 kts 103°
2026-05-06 16:03 27.80790 78.23421 29109 ft 529 kts 108°
2026-05-06 16:04 27.79509 78.27328 29457 ft 532 kts 111°
2026-05-06 16:04 27.78074 78.31198 29737 ft 537 kts 113°
2026-05-06 16:04 27.76555 78.35065 30006 ft 541 kts 114°
2026-05-06 16:04 27.75030 78.38960 30316 ft 543 kts 113°
2026-05-06 16:05 27.73519 78.42876 30634 ft 545 kts 113°
2026-05-06 16:05 27.72015 78.46819 30893 ft 548 kts 113°
2026-05-06 16:05 27.70507 78.50783 31138 ft 551 kts 113°
2026-05-06 16:05 27.68996 78.54775 31332 ft 555 kts 113°
2026-05-06 16:06 27.67498 78.58791 31609 ft 556 kts 113°
2026-05-06 16:06 27.65988 78.62819 31779 ft 559 kts 113°
2026-05-06 16:06 27.64465 78.66860 31996 ft 561 kts 113°
2026-05-06 16:06 27.62955 78.70853 32195 ft 562 kts 113°
2026-05-06 16:07 27.61418 78.74910 32441 ft 562 kts 113°
2026-05-06 16:07 27.59876 78.78974 32585 ft 565 kts 113°
2026-05-06 16:07 27.58326 78.83052 32709 ft 568 kts 114°
2026-05-06 16:07 27.56770 78.87143 32939 ft 568 kts 114°
2026-05-06 16:08 27.55213 78.91230 33223 ft 567 kts 114°
2026-05-06 16:08 27.53655 78.95316 33400 ft 568 kts 114°
2026-05-06 16:08 27.52092 78.99413 33601 ft 569 kts 114°
2026-05-06 16:08 27.50526 79.03511 33792 ft 570 kts 114°
2026-05-06 16:09 27.48958 79.07610 33974 ft 570 kts 114°
2026-05-06 16:09 27.47386 79.11716 34187 ft 570 kts 114°
2026-05-06 16:09 27.45818 79.15815 34400 ft 570 kts 114°
2026-05-06 16:09 27.44260 79.19927 34573 ft 571 kts 114°
2026-05-06 16:10 27.42688 79.24029 34733 ft 572 kts 114°
2026-05-06 16:10 27.41101 79.28147 34845 ft 574 kts 115°
2026-05-06 16:10 27.39509 79.32268 34980 ft 575 kts 115°
2026-05-06 16:10 27.37913 79.36396 35159 ft 574 kts 115°
2026-05-06 16:11 27.36320 79.40515 35314 ft 575 kts 115°
2026-05-06 16:11 27.34722 79.44645 35460 ft 575 kts 115°
2026-05-06 16:11 27.33125 79.48775 35587 ft 576 kts 115°
2026-05-06 16:11 27.31499 79.52897 35737 ft 576 kts 116°
2026-05-06 16:12 27.29840 79.56995 35878 ft 576 kts 116°
2026-05-06 16:12 27.28179 79.61090 36060 ft 576 kts 116°
2026-05-06 16:12 27.26521 79.65185 36212 ft 576 kts 116°
2026-05-06 16:12 27.24862 79.69288 36368 ft 576 kts 116°
2026-05-06 16:13 27.23195 79.73375 36533 ft 575 kts 114°
2026-05-06 16:13 27.21540 79.77460 36706 ft 574 kts 113°
2026-05-06 16:13 27.18280 79.85577 36771 ft 575 kts 113°
2026-05-06 16:14 27.15001 79.93782 36772 ft 577 kts 114°
2026-05-06 16:14 27.11684 80.01988 36775 ft 577 kts 114°
2026-05-06 16:15 27.08370 80.10166 36776 ft 575 kts 116°
2026-05-06 16:15 27.05052 80.18298 36818 ft 570 kts 114°
2026-05-06 16:16 27.01774 80.26360 36815 ft 566 kts 114°
2026-05-06 16:16 26.98509 80.34361 36810 ft 563 kts 113°
2026-05-06 16:17 26.95244 80.42354 36829 ft 562 kts 114°
2026-05-06 16:17 26.91997 80.50278 36837 ft 558 kts 114°
2026-05-06 16:18 26.88756 80.58190 36836 ft 560 kts 113°
2026-05-06 16:18 26.85506 80.66143 36826 ft 564 kts 114°
2026-05-06 16:19 26.82199 80.74138 36823 ft 568 kts 115°
2026-05-06 16:19 26.78870 80.82178 36827 ft 570 kts 114°
2026-05-06 16:20 26.75363 80.90143 36818 ft 572 kts 120°
2026-05-06 16:20 26.70953 80.97568 36825 ft 574 kts 126°
2026-05-06 16:21 26.66107 81.04664 36820 ft 574 kts 127°
2026-05-06 16:21 26.61306 81.11782 36824 ft 572 kts 126°
2026-05-06 16:22 26.56603 81.18912 36826 ft 569 kts 126°
2026-05-06 16:22 26.51963 81.26045 36824 ft 564 kts 127°
2026-05-06 16:23 26.47347 81.33103 36813 ft 564 kts 128°
2026-05-06 16:23 26.42732 81.40153 36792 ft 564 kts 128°
2026-05-06 16:24 26.38068 81.47237 36792 ft 568 kts 128°
2026-05-06 16:24 26.33392 81.54353 36780 ft 567 kts 130°
2026-05-06 16:25 26.28700 81.61425 36781 ft 569 kts 127°
2026-05-06 16:25 26.24009 81.68557 36779 ft 571 kts 129°
2026-05-06 16:26 26.19319 81.75655 36773 ft 567 kts 130°
2026-05-06 16:26 26.14622 81.82721 36780 ft 570 kts 128°
2026-05-06 16:27 26.09932 81.89794 36779 ft 574 kts 127°
2026-05-06 16:27 26.05177 81.96947 36783 ft 576 kts 126°
2026-05-06 16:28 26.00410 82.04122 36786 ft 576 kts 127°
2026-05-06 16:28 25.95689 82.11221 36789 ft 568 kts 129°
2026-05-06 16:29 25.90981 82.18249 36782 ft 567 kts 129°
2026-05-06 16:29 25.86258 82.25310 36782 ft 571 kts 128°
2026-05-06 16:30 25.82300 82.31225 36838 ft 564 kts 128°
2026-05-06 16:30 25.76890 82.39293 36848 ft 557 kts 128°
2026-05-06 16:31 25.72272 82.46170 36831 ft 556 kts 129°
2026-05-06 16:31 25.67646 82.53042 36866 ft 553 kts 129°
2026-05-06 16:32 25.63097 82.59818 36892 ft 542 kts 129°
2026-05-06 16:32 25.58606 82.66489 36887 ft 539 kts 129°
2026-05-06 16:33 25.54087 82.73165 36884 ft 544 kts 129°
2026-05-06 16:34 25.47325 82.83197 36897 ft 540 kts 127°
2026-05-06 16:34 25.43822 82.90557 36901 ft 541 kts 114°
2026-05-06 16:35 25.41147 82.98343 36886 ft 543 kts 111°
2026-05-06 16:35 25.38582 83.06243 36885 ft 549 kts 111°
2026-05-06 16:36 25.35944 83.14168 36891 ft 548 kts 111°
2026-05-06 16:36 25.33293 83.22046 36877 ft 546 kts 111°
2026-05-06 16:37 25.30653 83.29981 36846 ft 554 kts 110°
2026-05-06 16:37 25.27986 83.37942 36853 ft 559 kts 110°
2026-05-06 16:38 25.25263 83.46032 36820 ft 565 kts 110°
2026-05-06 16:38 25.22502 83.54194 36820 ft 569 kts 111°
2026-05-06 16:39 25.19720 83.62389 36835 ft 570 kts 110°
2026-05-06 16:39 25.16938 83.70574 36806 ft 571 kts 110°
2026-05-06 16:40 25.14134 83.78815 36791 ft 576 kts 109°
2026-05-06 16:40 25.11315 83.87121 36785 ft 579 kts 112°
2026-05-06 16:41 25.08475 83.95429 36786 ft 576 kts 114°
2026-05-06 16:41 25.05640 84.03679 36781 ft 574 kts 115°
2026-05-06 16:42 25.02786 84.11925 36782 ft 578 kts 111°
2026-05-06 16:42 24.99969 84.20213 36787 ft 575 kts 114°
2026-05-06 16:43 24.97117 84.28459 36784 ft 576 kts 115°
2026-05-06 16:43 24.94264 84.36704 36788 ft 575 kts 115°
2026-05-06 16:44 24.91433 84.44877 36798 ft 574 kts 115°
2026-05-06 16:44 24.88584 84.53090 36799 ft 574 kts 115°
2026-05-06 16:45 24.85735 84.61289 36796 ft 574 kts 115°
2026-05-06 16:45 24.82896 84.69506 36805 ft 574 kts 115°
2026-05-06 16:46 24.80030 84.77699 36805 ft 573 kts 115°
2026-05-06 16:46 24.77160 84.85882 36808 ft 573 kts 115°
2026-05-06 16:47 24.74138 84.93986 36808 ft 569 kts 121°
2026-05-06 16:47 24.70153 85.01452 36810 ft 564 kts 129°
2026-05-06 16:48 24.65659 85.08503 36810 ft 562 kts 131°
2026-05-06 16:48 24.61906 85.14327 36808 ft 560 kts 130°
2026-05-06 16:49 24.57495 85.21367 36807 ft 559 kts 130°
2026-05-06 16:49 24.53114 85.28442 36807 ft 561 kts 129°
2026-05-06 16:50 24.48743 85.35538 36807 ft 561 kts 130°
2026-05-06 16:50 24.44358 85.42618 36806 ft 560 kts 130°
2026-05-06 16:51 24.39971 85.49685 36806 ft 560 kts 130°
2026-05-06 16:51 24.35579 85.56747 36801 ft 560 kts 130°
2026-05-06 16:52 24.31191 85.63792 36802 ft 560 kts 130°
2026-05-06 16:52 24.26794 85.70841 36799 ft 560 kts 130°
2026-05-06 16:53 24.22396 85.77883 36801 ft 559 kts 130°
2026-05-06 16:53 24.18007 85.84899 36801 ft 557 kts 130°
2026-05-06 16:54 24.13619 85.91904 36801 ft 559 kts 130°
2026-05-06 16:54 24.09227 85.98906 36801 ft 559 kts 130°
2026-05-06 16:55 24.04829 86.05909 36802 ft 557 kts 130°
2026-05-06 16:55 24.00452 86.12866 36801 ft 554 kts 130°
2026-05-06 16:56 23.96090 86.19824 36802 ft 556 kts 130°
2026-05-06 16:56 23.91691 86.26795 36804 ft 557 kts 130°
2026-05-06 16:57 23.87287 86.33752 36803 ft 556 kts 130°
2026-05-06 16:57 23.82890 86.40694 36805 ft 556 kts 130°
2026-05-06 16:58 23.78597 86.47718 36805 ft 557 kts 127°
2026-05-06 16:58 23.74674 86.54956 36801 ft 559 kts 126°
2026-05-06 16:59 23.70693 86.62241 36798 ft 559 kts 127°
2026-05-06 16:59 23.66654 86.69505 36798 ft 559 kts 127°
2026-05-06 17:00 23.62618 86.76775 36795 ft 563 kts 124°
2026-05-06 17:00 23.58556 86.84115 36805 ft 567 kts 125°
2026-05-06 17:01 23.54480 86.91398 36803 ft 561 kts 126°
2026-05-06 17:01 23.50412 86.98666 36806 ft 559 kts 126°
2026-05-06 17:02 23.46376 87.05863 36796 ft 555 kts 126°
2026-05-06 17:02 23.42324 87.13069 36803 ft 561 kts 124°
2026-05-06 17:03 23.38243 87.20355 36810 ft 565 kts 124°
2026-05-06 17:03 23.34200 87.27557 36806 ft 555 kts 126°
2026-05-06 17:04 23.30207 87.34632 36805 ft 551 kts 127°